Regional Weather Roundup
Issued by NWS Kansas City/Pleasant Hill, MO

Home | Current Version | Previous Version | Graphics & Text | Print | Product List | Glossary Off
Versions: 1 2 3 4 5 6 7 8 9 10 11 12 13 14 15 16 17 18 19 20 21 22 23 24 25 26 27 28

000
ASUS43 KEAX 211110
RWREAX

WEATHER ROUNDUP FOR EASTERN KANSAS AND NORTHWEST MISSOURI
NATIONAL WEATHER SERVICE KANSAS CITY/PLEASANT HILL MO
600 AM CDT MON AUG 21 2017

KSZ040-057-103>105-MOZ028-029-037-043-211200-
...KANSAS CITY METROPOLITAN AREA...

CITY           SKY/WX    TMP DP  RH WIND       PRES   REMARKS
K.C. INTL      CLEAR     73  69  87 S8        30.03R
K.C. DOWNTOWN  CLEAR     79  71  76 S7        30.03R
LEES SUMMIT    CLEAR     74  69  85 S8        30.05R
OLATHE - IXD   CLOUDY    73  69  87 S9        30.05R
OLATHE - OJC   CLOUDY    70  69  97 S6        30.05R
LAWRENCE       PTCLDY    73  72  96 E6        30.02R

$$

MOZ001>008-011>017-020>025-030>033-038>040-044>046-053-054-211200-
...NORTHERN AND CENTRAL MISSOURI...

CITY           SKY/WX    TMP DP  RH WIND       PRES   REMARKS
ST. JOSEPH     CLEAR     73  72  96 S8        30.00S
MOSBY          CLOUDY    72  66  83 SE5       30.03S
WARRENSBURG    PTCLDY    68  64  88 CALM      30.07R
WHITEMAN AFB   MOCLDY    70  69  99 S6        30.06R
CLINTON        PTCLDY    72  68  88 S5        30.08R
SEDALIA        PTCLDY    71  70  96 S7        30.09R
WARSAW         NOT AVBL
CHILLICOTHE      N/A     70  67  90 S3        30.04R
KIRKSVILLE     CLOUDY    70  66  87 S6        30.06R

$$

MOZ041-047>049-056>058-063>065-088>090-097-211200-
...EASTERN AND SOUTHERN MISSOURI...

CITY           SKY/WX    TMP DP  RH WIND       PRES   REMARKS
ST. LOUIS INTL CLOUDY    78  73  84 SW5       30.10R
SPIRIT OF STL  CLOUDY    73  72  96 CALM      30.08R
COLUMBIA       PTCLDY    72  70  93 S8        30.09R
JEFFERSON CITY CLEAR     72  72 100 E5        30.08R
ROLLA          CLEAR     74  72  93 S8        30.13R
OSAGE BEACH    MOCLDY    71  68  90 SE3       30.11R
SPRINGFIELD    MOCLDY    71  71 100 S5        30.10R
BRANSON        PTCLDY    75  72  88 CALM      30.12R
JOPLIN         PTCLDY    76  73  91 S6        30.08R
WEST PLAINS    PTCLDY    70  69  97 CALM      30.14R FOG

$$

IAZ060-094-KSZ022-034>040-054-083-096-NEZ052-066-093-211200-
...KANSAS...SOUTHEAST NEBRASKA AND IOWA...

CITY           SKY/WX    TMP DP  RH WIND       PRES   REMARKS
TOPEKA         PTCLDY    76  74  93 S5        30.00R
MANHATTAN      PTCLDY    75  72  90 SW5       29.98R
EMPORIA        CLOUDY    74  72  93 S8        30.02R
CHANUTE        CLEAR     75  73  93 SE8       30.05R
WICHITA        CLOUDY    77  70  79 W7        30.04R
OMAHA          LGT RAIN  72  62  71 E28G36    30.02R
LINCOLN        MOCLDY    72  66  81 E16       29.99R
FALLS CITY     CLEAR     73  72  96 E6        29.99R
LAMONI         CLOUDY    70  67  90 NE12      30.06F
DES MOINES     TSTM      69  65  86 NE16      30.05R

$$





USA.gov is the U.S. government's official web portal to all federal, state and local government web resources and services.